Simultaneous Nadir Overpasses (SNOs) Predictions

Prediction of SNOs between FY3D and AQUA Satellite Orbit:

Table of predicted SNOs for the next 14.0 days since TLE Epoch: 2/20/2021
Index Date (FY3D) Time (FY3D) Lat,Lon (FY3D) SZA (FY3D ) Date (AQUA) Time (AQUA) Lat,Lon (AQUA) SZA (AQUA ) Distance(km) Time Diff (sec)
1 02/20/2021 04:05:14 70.93, 115.97 81.79 02/20/2021 04:04:01 71.24, 117.86 82.05 76.10 73
2 02/22/2021 18:56:01 49.85, 110.17 132.73 02/22/2021 18:57:07 49.98, 109.46 132.83 52.84 66
3 02/22/2021 19:47:55 -46.05, -84.13 43.93 02/22/2021 19:47:42 -46.09, -84.45 43.77 25.56 13
4 02/22/2021 20:27:30 80.43, 142.41 100.42 02/22/2021 20:26:17 80.90, 141.02 100.67 57.97 73
5 02/25/2021 12:04:16 -46.02, 31.79 44.82 02/25/2021 12:04:11 -46.10, 31.43 44.69 29.16 5
6 02/25/2021 12:49:39 64.09,-150.28 118.46 02/25/2021 12:48:26 64.18,-150.94 118.69 33.73 73
7 02/28/2021 04:20:31 -46.27, 147.82 45.99 02/28/2021 04:20:35 -46.33, 147.40 45.84 33.08 4
8 02/28/2021 05:11:16 46.03, -44.94 134.21 02/28/2021 05:10:03 46.07, -45.04 134.38 9.08 73
9 03/02/2021 20:36:44 -46.70, -96.08 47.33 03/02/2021 20:36:56 -46.79, -96.54 47.21 37.08 12
10 03/02/2021 21:27:36 46.05, 71.00 133.23 03/02/2021 21:26:32 46.07, 70.84 133.42 12.50 64
11 03/05/2021 12:28:44 -46.08,-172.62 127.20 03/05/2021 12:29:42 -46.14,-172.12 127.01 38.60 58



Historial Predications of SNOs between FY3D and AQUA
